Time,TemperatureF,DewpointF,PressureIn,WindDirection,WindDirectionDegrees,WindSpeedMPH,WindSpeedGustMPH,Humidity,HourlyPrecipIn,Conditions,Clouds,dailyrainin,SoftwareType,DateUTC
2013-08-21 00:05:00,57.0,53.8,29.86,NW,323,0.0,1.0,89,0.00,,,0.00,Wunderground v.1.15,2013-08-21 07:05:00,
2013-08-21 00:10:00,56.9,54.0,29.87,NW,323,0.0,0.0,90,0.00,,,0.00,Wunderground v.1.15,2013-08-21 07:10:00,
2013-08-21 00:20:00,56.8,53.9,29.86,WNW,301,0.0,2.0,90,0.00,,,0.00,Wunderground v.1.15,2013-08-21 07:20:00,
2013-08-21 00:30:00,56.7,53.8,29.86,NW,310,1.0,1.0,90,0.00,,,0.00,Wunderground v.1.15,2013-08-21 07:30:00,
2013-08-21 00:32:00,56.7,53.8,29.86,NW,315,0.0,-999.0,90,0.00,,,0.00,Wunderground v.1.15,2013-08-21 07:32:00,
2013-08-21 00:37:00,56.6,53.7,29.86,NE,45,0.0,-999.0,90,0.00,,,0.00,Wunderground v.1.15,2013-08-21 07:37:00,
2013-08-21 00:40:00,56.6,54.0,29.86,NE,45,0.0,0.0,91,0.00,,,0.00,Wunderground v.1.15,2013-08-21 07:40:00,
2013-08-21 00:42:00,56.6,54.0,29.86,NE,45,0.0,-999.0,91,0.00,,,0.00,Wunderground v.1.15,2013-08-21 07:42:00,
2013-08-21 00:47:00,56.6,54.0,29.86,ENE,68,0.0,-999.0,91,0.00,,,0.00,Wunderground v.1.15,2013-08-21 07:47:00,
2013-08-21 00:52:00,56.5,53.9,29.86,ENE,68,0.0,-999.0,91,0.00,,,0.00,Wunderground v.1.15,2013-08-21 07:52:00,
2013-08-21 00:57:00,56.4,53.8,29.87,SE,135,0.0,-999.0,91,0.00,,,0.00,Wunderground v.1.15,2013-08-21 07:57:00,
2013-08-21 01:02:00,56.4,53.8,29.86,SE,135,0.0,-999.0,91,0.00,,,0.00,Wunderground v.1.15,2013-08-21 08:02:00,
2013-08-21 01:07:00,56.3,53.7,29.87,SE,135,0.0,-999.0,91,0.00,,,0.00,Wunderground v.1.15,2013-08-21 08:07:00,
2013-08-21 01:12:00,56.3,53.7,29.87,ESE,113,0.0,-999.0,91,0.00,,,0.00,Wunderground v.1.15,2013-08-21 08:12:00,
2013-08-21 01:17:00,56.2,53.6,29.87,N/A,-737280,0.0,-999.0,91,0.00,,,0.00,Wunderground v.1.15,2013-08-21 08:17:00,
2013-08-21 01:22:00,56.1,53.5,29.86,ESE,113,0.0,-999.0,91,0.00,,,0.00,Wunderground v.1.15,2013-08-21 08:22:00,
2013-08-21 01:27:00,56.0,53.4,29.86,East,90,0.0,-999.0,91,0.00,,,0.00,Wunderground v.1.15,2013-08-21 08:27:00,
2013-08-21 01:32:00,56.0,53.4,29.86,N/A,-737280,0.0,-999.0,91,0.00,,,0.00,Wunderground v.1.15,2013-08-21 08:32:00,
2013-08-21 01:37:00,55.9,53.6,29.86,N/A,-737280,0.0,-999.0,92,0.00,,,0.00,Wunderground v.1.15,2013-08-21 08:37:00,
2013-08-21 01:42:00,55.9,53.6,29.86,East,90,0.0,-999.0,92,0.00,,,0.00,Wunderground v.1.15,2013-08-21 08:42:00,
2013-08-21 01:47:00,55.9,53.6,29.86,East,90,0.0,-999.0,92,0.00,,,0.00,Wunderground v.1.15,2013-08-21 08:47:00,
2013-08-21 01:52:00,55.9,53.6,29.87,East,90,0.0,-999.0,92,0.00,,,0.00,Wunderground v.1.15,2013-08-21 08:52:00,
2013-08-21 01:57:00,55.9,53.6,29.87,East,90,0.0,-999.0,92,0.00,,,0.00,Wunderground v.1.15,2013-08-21 08:57:00,
2013-08-21 02:02:00,55.9,53.6,29.86,N/A,-737280,0.0,-999.0,92,0.00,,,0.00,Wunderground v.1.15,2013-08-21 09:02:00,
2013-08-21 02:07:00,55.8,53.5,29.86,N/A,-737280,0.0,-999.0,92,0.00,,,0.00,Wunderground v.1.15,2013-08-21 09:07:00,
2013-08-21 02:12:00,55.7,53.4,29.86,East,90,0.0,-999.0,92,0.00,,,0.00,Wunderground v.1.15,2013-08-21 09:12:00,
2013-08-21 02:17:00,55.6,53.3,29.86,N/A,-737280,0.0,-999.0,92,0.00,,,0.00,Wunderground v.1.15,2013-08-21 09:17:00,
2013-08-21 02:22:00,55.5,53.2,29.86,East,90,0.0,-999.0,92,0.00,,,0.00,Wunderground v.1.15,2013-08-21 09:22:00,
2013-08-21 02:27:00,55.4,53.1,29.86,N/A,-737280,0.0,-999.0,92,0.00,,,0.00,Wunderground v.1.15,2013-08-21 09:27:00,
2013-08-21 02:32:00,55.3,53.0,29.86,East,90,0.0,-999.0,92,0.00,,,0.00,Wunderground v.1.15,2013-08-21 09:32:00,
2013-08-21 02:37:00,55.3,53.0,29.86,N/A,-737280,0.0,-999.0,92,0.00,,,0.00,Wunderground v.1.15,2013-08-21 09:37:00,
2013-08-21 02:42:00,55.2,52.9,29.86,East,90,0.0,-999.0,92,0.00,,,0.00,Wunderground v.1.15,2013-08-21 09:42:00,
2013-08-21 02:47:00,55.2,52.9,29.86,N/A,-737280,0.0,-999.0,92,0.00,,,0.00,Wunderground v.1.15,2013-08-21 09:47:00,
2013-08-21 02:52:00,55.1,52.8,29.86,N/A,-737280,0.0,-999.0,92,0.00,,,0.00,Wunderground v.1.15,2013-08-21 09:52:00,
2013-08-21 02:57:00,55.0,52.7,29.86,N/A,-737280,0.0,-999.0,92,0.00,,,0.00,Wunderground v.1.15,2013-08-21 09:57:00,
2013-08-21 03:02:00,54.8,52.5,29.86,N/A,-737280,0.0,-999.0,92,0.00,,,0.00,Wunderground v.1.15,2013-08-21 10:02:00,
2013-08-21 03:07:00,54.7,52.4,29.86,N/A,-737280,0.0,-999.0,92,0.00,,,0.00,Wunderground v.1.15,2013-08-21 10:07:00,
2013-08-21 03:12:00,54.6,52.3,29.86,N/A,-737280,0.0,-999.0,92,0.00,,,0.00,Wunderground v.1.15,2013-08-21 10:12:00,
2013-08-21 03:17:00,54.5,52.5,29.85,N/A,-737280,0.0,-999.0,93,0.00,,,0.00,Wunderground v.1.15,2013-08-21 10:17:00,
2013-08-21 03:22:00,54.4,52.4,29.85,N/A,-737280,0.0,-999.0,93,0.00,,,0.00,Wunderground v.1.15,2013-08-21 10:22:00,
2013-08-21 03:27:00,54.4,52.4,29.85,N/A,-737280,0.0,-999.0,93,0.00,,,0.00,Wunderground v.1.15,2013-08-21 10:27:00,
2013-08-21 03:32:00,54.4,52.4,29.85,N/A,-737280,0.0,-999.0,93,0.00,,,0.00,Wunderground v.1.15,2013-08-21 10:32:00,
2013-08-21 03:37:00,54.3,52.3,29.85,N/A,-737280,0.0,-999.0,93,0.00,,,0.00,Wunderground v.1.15,2013-08-21 10:37:00,
2013-08-21 03:42:00,54.2,52.2,29.85,N/A,-737280,0.0,-999.0,93,0.00,,,0.00,Wunderground v.1.15,2013-08-21 10:42:00,
2013-08-21 03:47:00,54.3,52.3,29.85,N/A,-737280,0.0,-999.0,93,0.00,,,0.00,Wunderground v.1.15,2013-08-21 10:47:00,
2013-08-21 03:52:00,54.2,52.2,29.85,N/A,-737280,0.0,-999.0,93,0.00,,,0.00,Wunderground v.1.15,2013-08-21 10:52:00,
2013-08-21 03:57:00,54.2,52.2,29.85,East,90,0.0,-999.0,93,0.00,,,0.00,Wunderground v.1.15,2013-08-21 10:57:00,
2013-08-21 04:02:00,54.2,52.5,29.85,N/A,-737280,0.0,-999.0,94,0.00,,,0.00,Wunderground v.1.15,2013-08-21 11:02:00,
2013-08-21 04:07:00,54.3,52.6,29.85,N/A,-737280,0.0,-999.0,94,0.00,,,0.00,Wunderground v.1.15,2013-08-21 11:07:00,
2013-08-21 04:12:00,54.5,52.8,29.85,N/A,-737280,0.0,-999.0,94,0.00,,,0.00,Wunderground v.1.15,2013-08-21 11:12:00,
2013-08-21 04:17:00,54.6,52.9,29.86,N/A,-737280,0.0,-999.0,94,0.00,,,0.00,Wunderground v.1.15,2013-08-21 11:17:00,
2013-08-21 04:22:00,54.8,53.1,29.86,N/A,-737280,0.0,-999.0,94,0.00,,,0.00,Wunderground v.1.15,2013-08-21 11:22:00,
2013-08-21 04:27:00,55.1,53.7,29.86,N/A,-737280,0.0,-999.0,95,0.00,,,0.00,Wunderground v.1.15,2013-08-21 11:27:00,
2013-08-21 04:37:00,55.7,54.3,29.86,North,0,0.0,-999.0,95,0.00,,,0.00,Wunderground v.1.15,2013-08-21 11:37:00,
2013-08-21 04:42:00,55.9,54.5,29.86,North,0,0.0,-999.0,95,0.00,,,0.00,Wunderground v.1.15,2013-08-21 11:42:00,
2013-08-21 04:47:00,56.2,54.8,29.86,North,0,0.0,-999.0,95,0.00,,,0.00,Wunderground v.1.15,2013-08-21 11:47:00,
2013-08-21 04:52:00,56.3,54.9,29.86,North,0,0.0,-999.0,95,0.00,,,0.00,Wunderground v.1.15,2013-08-21 11:52:00,
2013-08-21 04:57:00,56.4,55.0,29.86,North,0,0.0,-999.0,95,0.00,,,0.00,Wunderground v.1.15,2013-08-21 11:57:00,
2013-08-21 05:02:00,56.5,54.8,29.85,NW,315,0.0,-999.0,94,0.00,,,0.00,Wunderground v.1.15,2013-08-21 12:02:00,
2013-08-21 05:07:00,56.6,54.9,29.86,NW,315,0.0,-999.0,94,0.00,,,0.00,Wunderground v.1.15,2013-08-21 12:07:00,
2013-08-21 05:12:00,56.7,55.0,29.85,NW,315,0.0,-999.0,94,0.00,,,0.00,Wunderground v.1.15,2013-08-21 12:12:00,
2013-08-21 05:17:00,56.8,55.1,29.85,N/A,-737280,0.0,-999.0,94,0.00,,,0.00,Wunderground v.1.15,2013-08-21 12:17:00,
2013-08-21 05:22:00,56.9,55.2,29.86,N/A,-737280,0.0,-999.0,94,0.00,,,0.00,Wunderground v.1.15,2013-08-21 12:22:00,
2013-08-21 05:27:00,57.0,55.3,29.86,NW,315,0.0,-999.0,94,0.00,,,0.00,Wunderground v.1.15,2013-08-21 12:27:00,
2013-08-21 05:32:00,57.1,55.1,29.86,NW,315,0.0,-999.0,93,0.00,,,0.00,Wunderground v.1.15,2013-08-21 12:32:00,
2013-08-21 05:37:00,57.1,55.1,29.86,NW,315,0.0,-999.0,93,0.00,,,0.00,Wunderground v.1.15,2013-08-21 12:37:00,
2013-08-21 05:42:00,57.2,55.2,29.86,NW,315,0.0,-999.0,93,0.00,,,0.00,Wunderground v.1.15,2013-08-21 12:42:00,
2013-08-21 05:47:00,57.2,55.2,29.86,NW,315,0.0,-999.0,93,0.00,,,0.00,Wunderground v.1.15,2013-08-21 12:47:00,
2013-08-21 05:52:00,57.3,55.3,29.86,NW,315,0.0,-999.0,93,0.00,,,0.00,Wunderground v.1.15,2013-08-21 12:52:00,
2013-08-21 05:57:00,57.3,55.3,29.86,NW,315,0.0,-999.0,93,0.00,,,0.00,Wunderground v.1.15,2013-08-21 12:57:00,
2013-08-21 06:02:00,57.3,55.3,29.87,NW,315,0.0,-999.0,93,0.00,,,0.00,Wunderground v.1.15,2013-08-21 13:02:00,
2013-08-21 06:07:00,57.4,55.1,29.87,NW,315,0.0,-999.0,92,0.00,,,0.00,Wunderground v.1.15,2013-08-21 13:07:00,
2013-08-21 06:12:00,57.3,55.0,29.87,NW,315,1.0,-999.0,92,0.00,,,0.00,Wunderground v.1.15,2013-08-21 13:12:00,
2013-08-21 06:17:00,57.4,55.1,29.87,WNW,293,1.0,-999.0,92,0.00,,,0.00,Wunderground v.1.15,2013-08-21 13:17:00,
2013-08-21 06:22:00,57.3,55.0,29.88,WNW,293,2.0,-999.0,92,0.00,,,0.00,Wunderground v.1.15,2013-08-21 13:22:00,
2013-08-21 06:27:00,57.3,55.0,29.88,WNW,293,1.0,-999.0,92,0.00,,,0.00,Wunderground v.1.15,2013-08-21 13:27:00,
2013-08-21 06:32:00,57.3,55.0,29.88,WNW,293,1.0,-999.0,92,0.00,,,0.00,Wunderground v.1.15,2013-08-21 13:32:00,
2013-08-21 06:37:00,57.3,55.0,29.88,WNW,293,1.0,-999.0,92,0.00,,,0.00,Wunderground v.1.15,2013-08-21 13:37:00,
2013-08-21 06:42:00,57.3,55.0,29.88,WNW,293,1.0,-999.0,92,0.00,,,0.00,Wunderground v.1.15,2013-08-21 13:42:00,
2013-08-21 06:47:00,57.3,55.0,29.88,NW,315,1.0,-999.0,92,0.00,,,0.00,Wunderground v.1.15,2013-08-21 13:47:00,
2013-08-21 06:52:00,57.3,54.7,29.88,WNW,293,2.0,-999.0,91,0.00,,,0.00,Wunderground v.1.15,2013-08-21 13:52:00,
2013-08-21 06:57:00,57.4,54.8,29.88,WNW,293,1.0,-999.0,91,0.00,,,0.00,Wunderground v.1.15,2013-08-21 13:57:00,
2013-08-21 07:02:00,57.4,55.1,29.88,WNW,293,0.0,-999.0,92,0.00,,,0.00,Wunderground v.1.15,2013-08-21 14:02:00,
2013-08-21 07:07:00,57.4,55.1,29.89,WNW,293,1.0,-999.0,92,0.00,,,0.00,Wunderground v.1.15,2013-08-21 14:07:00,
2013-08-21 07:12:00,57.4,54.8,29.89,WNW,293,1.0,-999.0,91,0.00,,,0.00,Wunderground v.1.15,2013-08-21 14:12:00,
2013-08-21 07:17:00,57.4,54.8,29.89,WNW,293,0.0,-999.0,91,0.00,,,0.00,Wunderground v.1.15,2013-08-21 14:17:00,
2013-08-21 07:22:00,57.5,54.9,29.89,WNW,293,2.0,-999.0,91,0.00,,,0.00,Wunderground v.1.15,2013-08-21 14:22:00,
2013-08-21 07:27:00,57.5,54.9,29.89,NW,315,1.0,-999.0,91,0.00,,,0.00,Wunderground v.1.15,2013-08-21 14:27:00,
2013-08-21 07:32:00,57.5,54.9,29.89,NW,315,2.0,-999.0,91,0.00,,,0.00,Wunderground v.1.15,2013-08-21 14:32:00,
2013-08-21 07:37:00,57.6,55.0,29.89,NW,315,1.0,-999.0,91,0.00,,,0.00,Wunderground v.1.15,2013-08-21 14:37:00,
2013-08-21 07:42:00,57.6,54.7,29.90,NW,315,1.0,-999.0,90,0.00,,,0.00,Wunderground v.1.15,2013-08-21 14:42:00,
2013-08-21 07:47:00,57.7,54.8,29.90,NW,315,0.0,-999.0,90,0.00,,,0.00,Wunderground v.1.15,2013-08-21 14:47:00,
2013-08-21 07:52:00,57.7,54.8,29.90,WNW,293,0.0,-999.0,90,0.00,,,0.00,Wunderground v.1.15,2013-08-21 14:52:00,
2013-08-21 07:57:00,57.8,54.9,29.90,NW,315,2.0,-999.0,90,0.00,,,0.00,Wunderground v.1.15,2013-08-21 14:57:00,
2013-08-21 08:02:00,57.9,55.0,29.90,NW,315,0.0,-999.0,90,0.00,,,0.00,Wunderground v.1.15,2013-08-21 15:02:00,
2013-08-21 08:07:00,58.0,55.1,29.90,NW,315,1.0,-999.0,90,0.00,,,0.00,Wunderground v.1.15,2013-08-21 15:07:00,
2013-08-21 08:12:00,58.1,55.2,29.90,NW,315,1.0,-999.0,90,0.00,,,0.00,Wunderground v.1.15,2013-08-21 15:12:00,
2013-08-21 08:17:00,58.2,55.3,29.90,NW,315,0.0,-999.0,90,0.00,,,0.00,Wunderground v.1.15,2013-08-21 15:17:00,
2013-08-21 08:22:00,58.3,55.4,29.90,NW,315,1.0,-999.0,90,0.00,,,0.00,Wunderground v.1.15,2013-08-21 15:22:00,
2013-08-21 08:27:00,58.4,55.2,29.91,NW,315,1.0,-999.0,89,0.00,,,0.00,Wunderground v.1.15,2013-08-21 15:27:00,
2013-08-21 08:32:00,58.6,55.4,29.91,NW,315,1.0,-999.0,89,0.00,,,0.00,Wunderground v.1.15,2013-08-21 15:32:00,
2013-08-21 08:37:00,58.7,55.5,29.91,NW,315,2.0,-999.0,89,0.00,,,0.00,Wunderground v.1.15,2013-08-21 15:37:00,
2013-08-21 08:42:00,58.8,55.6,29.90,SSW,203,2.0,-999.0,89,0.00,,,0.00,Wunderground v.1.15,2013-08-21 15:42:00,
2013-08-21 08:47:00,58.8,55.6,29.90,SW,225,3.0,-999.0,89,0.00,,,0.00,Wunderground v.1.15,2013-08-21 15:47:00,
2013-08-21 08:52:00,58.9,55.7,29.91,SW,225,1.0,-999.0,89,0.00,,,0.00,Wunderground v.1.15,2013-08-21 15:52:00,
2013-08-21 08:57:00,59.0,55.8,29.91,NW,315,2.0,-999.0,89,0.00,,,0.00,Wunderground v.1.15,2013-08-21 15:57:00,
2013-08-21 09:02:00,59.2,55.6,29.91,West,270,2.0,-999.0,88,0.00,,,0.00,Wunderground v.1.15,2013-08-21 16:02:00,
2013-08-21 09:07:00,59.4,55.8,29.91,NW,315,1.0,-999.0,88,0.00,,,0.00,Wunderground v.1.15,2013-08-21 16:07:00,
2013-08-21 09:12:00,59.5,55.6,29.91,West,270,2.0,-999.0,87,0.00,,,0.00,Wunderground v.1.15,2013-08-21 16:12:00,
2013-08-21 09:17:00,59.7,55.8,29.91,WNW,293,1.0,-999.0,87,0.00,,,0.00,Wunderground v.1.15,2013-08-21 16:17:00,
2013-08-21 09:22:00,59.9,56.0,29.92,NW,315,1.0,-999.0,87,0.00,,,0.00,Wunderground v.1.15,2013-08-21 16:22:00,
2013-08-21 09:27:00,60.1,55.9,29.92,WSW,248,3.0,-999.0,86,0.00,,,0.00,Wunderground v.1.15,2013-08-21 16:27:00,
2013-08-21 09:32:00,60.3,56.1,29.91,SSW,203,3.0,-999.0,86,0.00,,,0.00,Wunderground v.1.15,2013-08-21 16:32:00,
2013-08-21 09:37:00,60.6,56.1,29.91,SW,225,4.0,-999.0,85,0.00,,,0.00,Wunderground v.1.15,2013-08-21 16:37:00,
2013-08-21 09:42:00,60.8,56.3,29.91,SSW,203,3.0,-999.0,85,0.00,,,0.00,Wunderground v.1.15,2013-08-21 16:42:00,
2013-08-21 09:47:00,60.8,56.3,29.91,SW,225,5.0,-999.0,85,0.00,,,0.00,Wunderground v.1.15,2013-08-21 16:47:00,
2013-08-21 09:52:00,60.8,56.3,29.91,SW,225,4.0,-999.0,85,0.00,,,0.00,Wunderground v.1.15,2013-08-21 16:52:00,
2013-08-21 09:57:00,61.0,56.5,29.91,South,180,4.0,-999.0,85,0.00,,,0.00,Wunderground v.1.15,2013-08-21 16:57:00,
2013-08-21 10:02:00,61.1,56.2,29.91,SW,225,3.0,-999.0,84,0.00,,,0.00,Wunderground v.1.15,2013-08-21 17:02:00,
2013-08-21 10:07:00,61.3,56.4,29.91,SW,225,4.0,-999.0,84,0.00,,,0.00,Wunderground v.1.15,2013-08-21 17:07:00,
2013-08-21 10:12:00,61.2,56.0,29.91,SW,225,4.0,-999.0,83,0.00,,,0.00,Wunderground v.1.15,2013-08-21 17:12:00,
2013-08-21 10:17:00,61.5,56.3,29.92,SSW,203,3.0,-999.0,83,0.00,,,0.00,Wunderground v.1.15,2013-08-21 17:17:00,
2013-08-21 10:22:00,62.0,56.8,29.91,WSW,248,2.0,-999.0,83,0.00,,,0.00,Wunderground v.1.15,2013-08-21 17:22:00,
2013-08-21 10:35:00,63.1,56.8,29.91,WSW,257,3.0,3.0,80,0.00,,,0.00,Wunderground v.1.15,2013-08-21 17:35:00,
2013-08-21 10:45:00,64.2,57.2,29.91,WNW,302,3.0,4.0,78,0.00,,,0.00,Wunderground v.1.15,2013-08-21 17:45:00,
2013-08-21 10:55:00,65.4,57.3,29.91,SSW,207,2.0,6.0,75,0.00,,,0.00,Wunderground v.1.15,2013-08-21 17:55:00,
2013-08-21 11:05:00,66.2,57.3,29.91,SW,219,4.0,7.0,73,0.00,,,0.00,Wunderground v.1.15,2013-08-21 18:05:00,
2013-08-21 11:10:00,65.8,56.9,29.91,WSW,250,5.0,7.0,73,0.00,,,0.00,Wunderground v.1.15,2013-08-21 18:10:00,
2013-08-21 11:20:00,66.6,57.3,29.92,WSW,258,5.0,5.0,72,0.00,,,0.00,Wunderground v.1.15,2013-08-21 18:20:00,
2013-08-21 11:25:00,66.6,57.3,29.92,SSE,155,6.0,6.0,72,0.00,,,0.00,Wunderground v.1.15,2013-08-21 18:25:00,
2013-08-21 11:35:00,67.1,57.4,29.91,WNW,294,4.0,7.0,71,0.00,,,0.00,Wunderground v.1.15,2013-08-21 18:35:00,
2013-08-21 11:45:00,67.2,57.5,29.91,SW,226,6.0,7.0,71,0.00,,,0.00,Wunderground v.1.15,2013-08-21 18:45:00,
2013-08-21 11:55:00,68.1,57.9,29.91,SW,233,6.0,7.0,70,0.00,,,0.00,Wunderground v.1.15,2013-08-21 18:55:00,
2013-08-21 12:00:00,68.1,57.9,29.91,SSW,207,5.0,5.0,70,0.00,,,0.00,Wunderground v.1.15,2013-08-21 19:00:00,
2013-08-21 12:05:00,68.7,58.1,29.91,SSW,208,4.0,7.0,69,0.00,,,0.00,Wunderground v.1.15,2013-08-21 19:05:00,
2013-08-21 12:10:00,68.9,57.9,29.91,SSW,195,4.0,8.0,68,0.00,,,0.00,Wunderground v.1.15,2013-08-21 19:10:00,
2013-08-21 12:15:00,69.0,57.6,29.91,SW,219,6.0,8.0,67,0.00,,,0.00,Wunderground v.1.15,2013-08-21 19:15:00,
2013-08-21 12:20:00,69.4,58.0,29.91,WSW,238,6.0,6.0,67,0.00,,,0.00,Wunderground v.1.15,2013-08-21 19:20:00,
2013-08-21 12:30:00,69.2,57.4,29.90,WSW,249,6.0,8.0,66,0.00,,,0.00,Wunderground v.1.15,2013-08-21 19:30:00,
2013-08-21 12:35:00,69.7,57.8,29.90,SW,220,4.0,8.0,66,0.00,,,0.00,Wunderground v.1.15,2013-08-21 19:35:00,
2013-08-21 12:40:00,69.8,57.9,29.90,SW,231,4.0,5.0,66,0.00,,,0.00,Wunderground v.1.15,2013-08-21 19:40:00,
2013-08-21 12:45:00,70.1,58.6,29.90,SSE,163,5.0,5.0,67,0.00,,,0.00,Wunderground v.1.15,2013-08-21 19:45:00,
2013-08-21 12:55:00,70.8,58.0,29.90,South,191,5.0,5.0,64,0.00,,,0.00,Wunderground v.1.15,2013-08-21 19:55:00,
2013-08-21 13:00:00,71.0,58.2,29.89,SSW,210,5.0,11.0,64,0.00,,,0.00,Wunderground v.1.15,2013-08-21 20:00:00,
2013-08-21 13:05:00,71.4,57.7,29.89,WSW,258,5.0,11.0,62,0.00,,,0.00,Wunderground v.1.15,2013-08-21 20:05:00,
2013-08-21 13:10:00,71.7,58.4,29.90,SSE,164,5.0,5.0,63,0.00,,,0.00,Wunderground v.1.15,2013-08-21 20:10:00,
2013-08-21 13:15:00,71.7,58.4,29.89,SW,224,4.0,6.0,63,0.00,,,0.00,Wunderground v.1.15,2013-08-21 20:15:00,
2013-08-21 13:25:00,72.3,58.1,29.89,WSW,251,5.0,7.0,61,0.00,,,0.00,Wunderground v.1.15,2013-08-21 20:25:00,
2013-08-21 13:30:00,72.2,58.0,29.89,West,266,4.0,11.0,61,0.00,,,0.00,Wunderground v.1.15,2013-08-21 20:30:00,
2013-08-21 13:35:00,72.2,58.0,29.89,SSW,200,5.0,11.0,61,0.00,,,0.00,Wunderground v.1.15,2013-08-21 20:35:00,
2013-08-21 13:40:00,72.6,58.4,29.89,West,264,6.0,6.0,61,0.00,,,0.00,Wunderground v.1.15,2013-08-21 20:40:00,
2013-08-21 13:45:00,72.8,58.1,29.89,WSW,249,5.0,7.0,60,0.00,,,0.00,Wunderground v.1.15,2013-08-21 20:45:00,
2013-08-21 13:50:00,73.0,58.3,29.88,SW,234,5.0,11.0,60,0.00,,,0.00,Wunderground v.1.15,2013-08-21 20:50:00,
2013-08-21 14:00:00,73.2,58.5,29.88,SW,224,6.0,6.0,60,0.00,,,0.00,Wunderground v.1.15,2013-08-21 21:00:00,
2013-08-21 14:05:00,73.7,58.9,29.88,WSW,240,5.0,11.0,60,0.00,,,0.00,Wunderground v.1.15,2013-08-21 21:05:00,
2013-08-21 14:15:00,73.9,58.2,29.87,SW,228,6.0,12.0,58,0.00,,,0.00,Wunderground v.1.15,2013-08-21 21:15:00,
2013-08-21 14:20:00,74.0,58.3,29.87,SSW,193,6.0,11.0,58,0.00,,,0.00,Wunderground v.1.15,2013-08-21 21:20:00,
2013-08-21 14:30:00,74.3,58.6,29.87,SSW,212,6.0,6.0,58,0.00,,,0.00,Wunderground v.1.15,2013-08-21 21:30:00,
2013-08-21 14:35:00,75.2,58.9,29.87,SW,236,5.0,7.0,57,0.00,,,0.00,Wunderground v.1.15,2013-08-21 21:35:00,
2013-08-21 14:45:00,75.7,58.4,29.87,West,271,4.0,6.0,55,0.00,,,0.00,Wunderground v.1.15,2013-08-21 21:45:00,
2013-08-21 14:50:00,76.2,58.9,29.86,NNW,328,4.0,4.0,55,0.00,,,0.00,Wunderground v.1.15,2013-08-21 21:50:00,
2013-08-21 14:55:00,76.6,58.2,29.86,NW,315,4.0,6.0,53,0.00,,,0.00,Wunderground v.1.15,2013-08-21 21:55:00,
2013-08-21 15:05:00,76.8,58.4,29.86,WNW,297,4.0,11.0,53,0.00,,,0.00,Wunderground v.1.15,2013-08-21 22:05:00,
2013-08-21 15:10:00,76.7,58.3,29.86,NW,321,4.0,11.0,53,0.00,,,0.00,Wunderground v.1.15,2013-08-21 22:10:00,
2013-08-21 15:15:00,76.9,58.5,29.85,SSE,155,4.0,11.0,53,0.00,,,0.00,Wunderground v.1.15,2013-08-21 22:15:00,
2013-08-21 15:20:00,76.5,58.6,29.85,SW,235,5.0,11.0,54,0.00,,,0.00,Wunderground v.1.15,2013-08-21 22:20:00,
2013-08-21 15:25:00,75.5,57.7,29.85,SW,217,5.0,11.0,54,0.00,,,0.00,Wunderground v.1.15,2013-08-21 22:25:00,
2013-08-21 15:30:00,75.6,57.8,29.85,West,269,6.0,6.0,54,0.00,,,0.00,Wunderground v.1.15,2013-08-21 22:30:00,
2013-08-21 15:40:00,75.5,57.7,29.85,WNW,285,5.0,5.0,54,0.00,,,0.00,Wunderground v.1.15,2013-08-21 22:40:00,
2013-08-21 15:45:00,75.8,58.0,29.84,NW,311,5.0,11.0,54,0.00,,,0.00,Wunderground v.1.15,2013-08-21 22:45:00,
2013-08-21 15:50:00,75.8,58.0,29.84,NW,310,5.0,5.0,54,0.00,,,0.00,Wunderground v.1.15,2013-08-21 22:50:00,
2013-08-21 15:55:00,75.8,58.0,29.84,NW,313,4.0,11.0,54,0.00,,,0.00,Wunderground v.1.15,2013-08-21 22:55:00,
2013-08-21 16:00:00,76.2,58.3,29.84,WSW,250,5.0,11.0,54,0.00,,,0.00,Wunderground v.1.15,2013-08-21 23:00:00,
2013-08-21 16:10:00,75.3,57.5,29.84,NW,309,6.0,6.0,54,0.00,,,0.00,Wunderground v.1.15,2013-08-21 23:10:00,
2013-08-21 16:15:00,75.3,57.5,29.84,WNW,300,5.0,6.0,54,0.00,,,0.00,Wunderground v.1.15,2013-08-21 23:15:00,
2013-08-21 16:20:00,75.5,58.2,29.84,WNW,297,5.0,5.0,55,0.00,,,0.00,Wunderground v.1.15,2013-08-21 23:20:00,
2013-08-21 16:25:00,75.3,58.0,29.84,SW,230,5.0,5.0,55,0.00,,,0.00,Wunderground v.1.15,2013-08-21 23:25:00,
2013-08-21 16:30:00,75.3,58.0,29.84,WNW,303,5.0,6.0,55,0.00,,,0.00,Wunderground v.1.15,2013-08-21 23:30:00,
2013-08-21 16:35:00,75.5,57.7,29.83,West,259,4.0,6.0,54,0.00,,,0.00,Wunderground v.1.15,2013-08-21 23:35:00,
2013-08-21 16:45:00,74.7,58.0,29.83,WSW,248,6.0,6.0,56,0.00,,,0.00,Wunderground v.1.15,2013-08-21 23:45:00,
2013-08-21 16:50:00,74.5,57.8,29.83,West,268,6.0,9.0,56,0.00,,,0.00,Wunderground v.1.15,2013-08-21 23:50:00,
2013-08-21 16:55:00,74.1,57.9,29.83,NW,314,5.0,9.0,57,0.00,,,0.00,Wunderground v.1.15,2013-08-21 23:55:00,
2013-08-21 17:00:00,74.4,57.7,29.83,NW,321,5.0,8.0,56,0.00,,,0.00,Wunderground v.1.15,2013-08-22 00:00:00,
2013-08-21 17:05:00,74.6,58.4,29.83,WSW,254,5.0,8.0,57,0.00,,,0.00,Wunderground v.1.15,2013-08-22 00:05:00,
2013-08-21 17:10:00,74.2,58.0,29.83,SW,233,4.0,8.0,57,0.00,,,0.00,Wunderground v.1.15,2013-08-22 00:10:00,
2013-08-21 17:15:00,74.1,57.9,29.84,NW,314,4.0,8.0,57,0.00,,,0.00,Wunderground v.1.15,2013-08-22 00:15:00,
2013-08-21 17:20:00,74.4,57.7,29.84,West,269,4.0,8.0,56,0.00,,,0.00,Wunderground v.1.15,2013-08-22 00:20:00,
2013-08-21 17:25:00,73.1,57.0,29.84,WNW,296,5.0,8.0,57,0.00,,,0.00,Wunderground v.1.15,2013-08-22 00:25:00,
2013-08-21 17:30:00,71.9,56.8,29.84,SSW,212,6.0,9.0,59,0.00,,,0.00,Wunderground v.1.15,2013-08-22 00:30:00,
2013-08-21 17:35:00,71.4,57.2,29.84,WNW,296,6.0,9.0,61,0.00,,,0.00,Wunderground v.1.15,2013-08-22 00:35:00,
2013-08-21 17:45:00,71.6,57.0,29.84,NNW,336,5.0,8.0,60,0.00,,,0.00,Wunderground v.1.15,2013-08-22 00:45:00,
2013-08-21 17:55:00,71.1,57.0,29.84,WNW,283,4.0,8.0,61,0.00,,,0.00,Wunderground v.1.15,2013-08-22 00:55:00,
2013-08-21 18:00:00,70.7,57.0,29.84,NW,316,5.0,5.0,62,0.00,,,0.00,Wunderground v.1.15,2013-08-22 01:00:00,
2013-08-21 18:05:00,70.4,56.8,29.84,West,266,5.0,6.0,62,0.00,,,0.00,Wunderground v.1.15,2013-08-22 01:05:00,
2013-08-21 18:15:00,69.6,56.9,29.85,SW,221,6.0,6.0,64,0.00,,,0.00,Wunderground v.1.15,2013-08-22 01:15:00,
2013-08-21 18:20:00,69.4,56.7,29.85,SSE,162,6.0,6.0,64,0.00,,,0.00,Wunderground v.1.15,2013-08-22 01:20:00,
2013-08-21 18:30:00,69.4,56.7,29.85,WNW,290,5.0,8.0,64,0.00,,,0.00,Wunderground v.1.15,2013-08-22 01:30:00,
2013-08-21 18:35:00,69.4,56.7,29.85,WSW,255,5.0,8.0,64,0.00,,,0.00,Wunderground v.1.15,2013-08-22 01:35:00,
2013-08-21 18:40:00,68.4,56.2,29.85,West,269,5.0,9.0,65,0.00,,,0.00,Wunderground v.1.15,2013-08-22 01:40:00,
2013-08-21 18:50:00,67.0,56.5,29.86,WSW,238,5.0,5.0,69,0.00,,,0.00,Wunderground v.1.15,2013-08-22 01:50:00,
2013-08-21 19:00:00,66.6,56.5,29.86,West,259,4.0,8.0,70,0.00,,,0.00,Wunderground v.1.15,2013-08-22 02:00:00,
2013-08-21 19:05:00,66.3,56.2,29.86,WSW,255,5.0,8.0,70,0.00,,,0.00,Wunderground v.1.15,2013-08-22 02:05:00,
2013-08-21 19:10:00,65.8,56.1,29.85,NW,312,5.0,5.0,71,0.00,,,0.00,Wunderground v.1.15,2013-08-22 02:10:00,
2013-08-21 19:15:00,65.4,56.1,29.85,NW,317,4.0,5.0,72,0.00,,,0.00,Wunderground v.1.15,2013-08-22 02:15:00,
2013-08-21 19:20:00,64.9,56.0,29.86,West,274,4.0,4.0,73,0.00,,,0.00,Wunderground v.1.15,2013-08-22 02:20:00,
2013-08-21 19:25:00,64.3,55.8,29.86,West,279,4.0,5.0,74,0.00,,,0.00,Wunderground v.1.15,2013-08-22 02:25:00,
2013-08-21 19:35:00,63.2,55.5,29.86,SW,228,5.0,7.0,76,0.00,,,0.00,Wunderground v.1.15,2013-08-22 02:35:00,
2013-08-21 19:40:00,62.8,55.8,29.86,West,265,4.0,4.0,78,0.00,,,0.00,Wunderground v.1.15,2013-08-22 02:40:00,
2013-08-21 19:50:00,62.2,55.6,29.87,West,262,4.0,4.0,79,0.00,,,0.00,Wunderground v.1.15,2013-08-22 02:50:00,
2013-08-21 19:55:00,61.8,55.6,29.87,SW,221,4.0,7.0,80,0.00,,,0.00,Wunderground v.1.15,2013-08-22 02:55:00,
2013-08-21 20:00:00,61.4,55.5,29.87,West,266,5.0,5.0,81,0.00,,,0.00,Wunderground v.1.15,2013-08-22 03:00:00,
2013-08-21 20:10:00,60.8,55.3,29.87,West,269,3.0,11.0,82,0.00,,,0.00,Wunderground v.1.15,2013-08-22 03:10:00,
2013-08-21 20:15:00,60.5,55.3,29.88,West,276,3.0,11.0,83,0.00,,,0.00,Wunderground v.1.15,2013-08-22 03:15:00,
2013-08-21 20:25:00,60.0,55.2,29.88,NW,305,4.0,5.0,84,0.00,,,0.00,Wunderground v.1.15,2013-08-22 03:25:00,
2013-08-21 20:30:00,59.9,55.1,29.88,NW,305,3.0,3.0,84,0.00,,,0.00,Wunderground v.1.15,2013-08-22 03:30:00,
2013-08-21 20:35:00,59.8,55.3,29.88,WSW,257,3.0,4.0,85,0.00,,,0.00,Wunderground v.1.15,2013-08-22 03:35:00,
2013-08-21 20:45:00,59.9,55.4,29.89,NNW,333,3.0,11.0,85,0.00,,,0.00,Wunderground v.1.15,2013-08-22 03:45:00,
2013-08-21 20:50:00,59.9,55.4,29.89,NW,320,3.0,3.0,85,0.00,,,0.00,Wunderground v.1.15,2013-08-22 03:50:00,
2013-08-21 20:55:00,59.8,55.3,29.89,West,268,2.0,11.0,85,0.00,,,0.00,Wunderground v.1.15,2013-08-22 03:55:00,
2013-08-21 21:00:00,59.8,55.3,29.89,WNW,295,3.0,11.0,85,0.00,,,0.00,Wunderground v.1.15,2013-08-22 04:00:00,
2013-08-21 21:05:00,59.8,55.3,29.89,WSW,239,3.0,11.0,85,0.00,,,0.00,Wunderground v.1.15,2013-08-22 04:05:00,
2013-08-21 21:10:00,59.8,55.3,29.89,NW,304,3.0,11.0,85,0.00,,,0.00,Wunderground v.1.15,2013-08-22 04:10:00,
2013-08-21 21:15:00,59.7,55.2,29.90,NW,306,3.0,11.0,85,0.00,,,0.00,Wunderground v.1.15,2013-08-22 04:15:00,
2013-08-21 21:25:00,59.7,55.5,29.90,NW,322,2.0,11.0,86,0.00,,,0.00,Wunderground v.1.15,2013-08-22 04:25:00,
2013-08-21 21:30:00,59.7,55.5,29.90,NW,304,3.0,3.0,86,0.00,,,0.00,Wunderground v.1.15,2013-08-22 04:30:00,
2013-08-21 21:35:00,59.7,55.5,29.90,WNW,288,2.0,4.0,86,0.00,,,0.00,Wunderground v.1.15,2013-08-22 04:35:00,
2013-08-21 21:40:00,59.7,55.5,29.90,WNW,283,2.0,11.0,86,0.00,,,0.00,Wunderground v.1.15,2013-08-22 04:40:00,
2013-08-21 21:45:00,59.8,55.6,29.90,NW,304,2.0,11.0,86,0.00,,,0.00,Wunderground v.1.15,2013-08-22 04:45:00,
2013-08-21 21:55:00,59.6,55.4,29.90,WNW,282,3.0,11.0,86,0.00,,,0.00,Wunderground v.1.15,2013-08-22 04:55:00,
2013-08-21 22:00:00,59.6,55.4,29.90,NW,305,1.0,1.0,86,0.00,,,0.00,Wunderground v.1.15,2013-08-22 05:00:00,
2013-08-21 22:05:00,59.5,55.3,29.90,WNW,299,1.0,2.0,86,0.00,,,0.00,Wunderground v.1.15,2013-08-22 05:05:00,
2013-08-21 22:10:00,59.4,55.2,29.90,NW,320,1.0,1.0,86,0.00,,,0.00,Wunderground v.1.15,2013-08-22 05:10:00,
2013-08-21 22:15:00,59.4,55.2,29.90,NW,314,1.0,1.0,86,0.00,,,0.00,Wunderground v.1.15,2013-08-22 05:15:00,
2013-08-21 22:20:00,59.3,55.1,29.90,NW,306,1.0,2.0,86,0.00,,,0.00,Wunderground v.1.15,2013-08-22 05:20:00,
2013-08-21 22:30:00,59.2,55.0,29.90,NW,326,0.0,0.0,86,0.00,,,0.00,Wunderground v.1.15,2013-08-22 05:30:00,
2013-08-21 22:35:00,59.0,54.8,29.90,NW,323,0.0,0.0,86,0.00,,,0.00,Wunderground v.1.15,2013-08-22 05:35:00,
2013-08-21 22:40:00,58.9,54.7,29.90,NW,323,0.0,0.0,86,0.00,,,0.00,Wunderground v.1.15,2013-08-22 05:40:00,
2013-08-21 22:45:00,58.7,54.8,29.90,NW,314,1.0,1.0,87,0.00,,,0.00,Wunderground v.1.15,2013-08-22 05:45:00,
2013-08-21 22:50:00,58.6,54.7,29.90,NW,312,1.0,1.0,87,0.00,,,0.00,Wunderground v.1.15,2013-08-22 05:50:00,
2013-08-21 22:55:00,58.5,54.6,29.90,NW,311,1.0,1.0,87,0.00,,,0.00,Wunderground v.1.15,2013-08-22 05:55:00,
2013-08-21 23:00:00,58.4,54.5,29.90,WNW,303,1.0,1.0,87,0.00,,,0.00,Wunderground v.1.15,2013-08-22 06:00:00,
2013-08-21 23:05:00,58.3,54.8,29.90,NW,312,1.0,4.0,88,0.00,,,0.00,Wunderground v.1.15,2013-08-22 06:05:00,
2013-08-21 23:10:00,58.2,54.7,29.90,NW,316,1.0,1.0,88,0.00,,,0.00,Wunderground v.1.15,2013-08-22 06:10:00,
2013-08-21 23:15:00,58.1,54.6,29.91,NW,316,1.0,4.0,88,0.00,,,0.00,Wunderground v.1.15,2013-08-22 06:15:00,
2013-08-21 23:20:00,58.0,54.5,29.91,NW,316,0.0,4.0,88,0.00,,,0.00,Wunderground v.1.15,2013-08-22 06:20:00,
2013-08-21 23:25:00,57.9,54.4,29.91,NW,323,0.0,4.0,88,0.00,,,0.00,Wunderground v.1.15,2013-08-22 06:25:00,
2013-08-21 23:30:00,57.8,54.3,29.90,NW,323,0.0,4.0,88,0.00,,,0.00,Wunderground v.1.15,2013-08-22 06:30:00,
2013-08-21 23:35:00,57.7,54.2,29.90,NW,323,0.0,4.0,88,0.00,,,0.00,Wunderground v.1.15,2013-08-22 06:35:00,
2013-08-21 23:40:00,57.6,54.1,29.90,NW,323,0.0,4.0,88,0.00,,,0.00,Wunderground v.1.15,2013-08-22 06:40:00,
2013-08-21 23:45:00,57.5,54.3,29.90,NW,323,0.0,4.0,89,0.00,,,0.00,Wunderground v.1.15,2013-08-22 06:45:00,
2013-08-21 23:50:00,57.4,54.2,29.90,NW,323,0.0,4.0,89,0.00,,,0.00,Wunderground v.1.15,2013-08-22 06:50:00,
2013-08-21 23:55:00,57.3,54.1,29.90,NW,307,0.0,4.0,89,0.00,,,0.00,Wunderground v.1.15,2013-08-22 06:55:00,